OneWeb SL0090

operational
NORAD ID: 45427 Int'l Des: 2020-020 Owner: ONEWEB Country: UK Constellation: oneweb
LEOCIRCULARPOLARONEWEB_TYPE

OneWeb SL0090について

説明を読み込み中...

リアルタイム位置

3D地球を読み込み中...

次回通過

高度履歴

Altitude vs Time

uPlot chart will show altitude changes over time

軌道要素

1 45427U 20020D 26034.46472592 .00000150 00000-0 38811-3 0 9990
2 45427 87.8818 47.6742 0001840 92.4314 267.7025 13.11418977285141
Epoch: Feb 3, 2026 • Age: 19 hours

現在のステータス

高度 1226.7 km
速度 7.24 km/s
衛星直下点 -22.82°S, 3.46°W
打ち上げ日 Mar 21, 2020
運用期間 5.8 years
タイプ internet

技術仕様

分類 Payload
質量 148.00 kg
乾燥質量 140.00 kg
総質量 148.00 kg
長さ 1.30 m
直径 1.00 m
スパン 5.00 m
形状 Trapezoid+2 pan
製造者 ONEWUS
バスタイプ ARROW
フェーズステータス In Orbit
所有者/国 ONEWEB/UK

大規模コンステレーション

Loading constellations...